MUOS-1

Last updated on Sun Apr 12 2026 00:02:52 GMT+0000 (Coordinated Universal Time)

1 38093U 12009A 26101.39697513 -.00000122 00000+0 00000+0 0 9992 2 38093 5.3407 47.1838 0059221 0.3277 195.0516 1.00271172 51771
UTC large
Height (km)
Speed (km/s)
/
Latitude / Longitude
Inclination (degrees)
Orbital Period (minutes)
Azimuth
Elevation
Range (km)
Doppler Factor

Next 0 passes for location: London (51.5072 / 0.1276)

Sorry there are no passes over London.
MUOS-1